Regional Weather Roundup
Issued by NWS

Home | Current Version | Previous Version | Text Only | Print | Product List | Glossary Off
Versions: 1 2 3 4 5 6 7 8 9 10 11 12 13 14 15 16 17 18 19 20 21 22 23 24 25 26 27 28 29 30 31 32 33 34 35 36 37 38 39 40 41 42 43 44 45 46 47 48 49 50

000
ASUS43 KDMX 250706
RWRIA

WEATHER ROUNDUP FOR IOWA
NATIONAL WEATHER SERVICE DES MOINES IA
200 AM CDT MON SEP 25 2017

NOTE: "FAIR" INDICATES FEW OR NO CLOUDS BELOW 12,000 FEET WITH NO
SIGNIFICANT WEATHER AND/OR OBSTRUCTIONS TO VISIBILITY.

* - THESE STATIONS ARE NOT NWS STATIONS...THUS NOT UNDER NWS
QUALITY CONTROL.  THEY ALSO DO NOT REPORT WEATHER SUCH
AS PRECIPITATION OR FOG.

IAZ001>003-012>014-020>022-031>034-043>046-250800-
   NORTHWEST IOWA

CITY           SKY/WX    TMP DP  RH WIND       PRES   REMARKS
CARROLL *        N/A     68  68 100 NW5       29.94R
CHEROKEE *     TSTM      60  60 100 N7        29.98S
DENISON *      CLOUDY    63  61  94 NE6       29.98S
LE MARS *      CLOUDY    57  57 100 VRB7      30.00R
ORANGE CITY *  RAIN      59  59 100 NW7       29.99R
SHELDON *      HVY RAIN  57  57 100 N7        29.97R
SIOUX CITY     LGT RAIN  57  57 100 NW9       29.99R
SPENCER        LGT RAIN  62  61  96 NW7       29.97R
STORM LAKE *   CLOUDY    63  61  94 W12       29.98R
$$

IAZ055>058-069>071-079>083-090>094-250800-
   SOUTHWEST IOWA

CITY           SKY/WX    TMP DP  RH WIND       PRES   REMARKS
ATLANTIC *     PTCLDY    66  66 100 NW12      29.94R
AUDUBON *      PTCLDY    66  63  88 W3        29.96R
CLARINDA *     CLOUDY    68  66  94 CALM      29.95R
COUNCIL BLFS * LGT RAIN  63  63 100 E5        29.98R
CRESTON *      PTCLDY    70  64  83 S7        29.95S
HARLAN  *      CLOUDY    64  63  94 N5        29.99R
LAMONI         CLEAR     70  64  81 S6        29.94S
RED OAK *      MOCLDY    66  63  88 W17G29    29.96R
SHENANDOAH *   PTCLDY    66  63  88 N5G13     29.95R
$$

IAZ047>049-059>061-072>074-084-250800-
   CENTRAL IOWA

CITY           SKY/WX    TMP DP  RH WIND       PRES   REMARKS
AMES           CLEAR     67  65  93 S3        29.93R
ANKENY *       PTCLDY    70  63  78 CALM      29.94R
BOONE *        PTCLDY    70  63  78 CALM      29.92S
CHARITON *     CLEAR     68  63  83 S6        29.94S
DES MOINES     PTCLDY    73  63  70 CALM      29.92R
GRINNELL*      CLEAR     69  62  78 S5        29.96R
KNOXVILLE *    CLEAR     72  63  73 S3        29.93S
MARSHALLTOWN   CLEAR     68  63  84 SE6       29.93R
NEWTON *       PTCLDY    68  63  83 S6        29.94S
PELLA *        CLEAR     71  62  73 CALM      29.95R
PERRY *          N/A     65  64  94 CALM      29.93R
$$

IAZ004>006-015-016-023>025-035-036-250800-
   NORTH CENTRAL IOWA

CITY           SKY/WX    TMP DP  RH WIND       PRES   REMARKS
ALGONA *       CLOUDY    68  68 100 NE9       29.93F
CLARION *        N/A     68  68 100 N5        29.95R
ESTHERVILLE    RAIN      60  60 100 NE13      29.94F FOG
FORT DODGE *   PTCLDY    67  65  93 NE6       29.94R
MASON CITY     CLOUDY    67  63  87 NE5       29.96S
FOREST CITY *  CLOUDY    68  66  94 W5        29.96R
WEBSTER CITY * PTCLDY    66  63  88 N6        29.92R
IOWA FALLS *     N/A     65  62  90 CALM      29.95R
$$

IAZ007>011-017>019-026>030-037>042-050>054-066-250800-
   NORTHEAST IOWA

CITY           SKY/WX    TMP DP  RH WIND       PRES   REMARKS
CEDAR RAPIDS     N/A    N/A N/A N/A SE5       29.95R
CHARLES CITY * CLEAR     66  63  88 CALM      29.95S
CLINTON *      CLEAR    N/A N/A N/A E5        29.97S
DECORAH *      CLEAR     70  63  78 S6        29.94S
DUBUQUE        CLEAR     68  61  78 CALM      29.98S
MONTICELLO *   CLEAR     63  61  94 CALM      29.95F
OELWEIN *      CLEAR     68  63  83 SE7       29.96S
WATERLOO       MOCLDY    69  62  78 SE6       29.93R
$$

IAZ064-065-067-068-078-250800-
   EAST CENTRAL IOWA

CITY           SKY/WX    TMP DP  RH WIND       PRES   REMARKS
DAVENPORT      CLEAR     69  61  75 SE7       29.98S
IOWA CITY      CLEAR     67  62  84 CALM      29.96S
MUSCATINE *    CLEAR     66  63  88 CALM      29.95S
QUAD CITIES    CLEAR     71  60  68 CALM      29.95S
$$

IAZ062-063-075>077-085>089-095>099-250800-
   SOUTHEAST IOWA

CITY           SKY/WX    TMP DP  RH WIND       PRES   REMARKS
BURLINGTON     CLEAR     69  63  81 CALM      29.95S
FAIRFIELD *    CLEAR     70  61  73 S3        29.94S
FORT MADISON * CLEAR     73  63  68 S3        29.96R
KEOKUK *       CLEAR     68  64  88 CALM      29.94S
OSKALOOSA *      N/A     67  62  83 CALM      29.95R
OTTUMWA        CLEAR     70  62  76 S8        29.94S
WASHINGTON *   CLEAR     68  63  83 S5        29.96S
$$

ABBREVIATIONS USED IN REMARKS
   TC - TEMPERATURES IN CELSIUS
  WCI - WIND CHILL INDEX
   HX - HEAT INDEX
  VSB - VISIBILITY
$$




USA.gov is the U.S. government's official web portal to all federal, state and local government web resources and services.